User: anonymous   Login
Location: Unspecified
(0.0000°N, 0.0000°E)
Time: 23:51:24
(UTC+00:00)
Language:

NOVASAR 1 - Orbit

View from above orbital plane
View from above orbital plane
View from above satellite
View from above satellite

Ground track
Ground track

The orbit is defined by the following mean orbital elements,

1 43619U          26145.58389368 +.00000000 +00000-0 +17933-4 0 00001
2 43619  97.5093  18.8274 0001637 101.2398 258.9008 14.96213728    04
Epoch (UTC): 25 May 2026 14:00:48
Eccentricity: 0.0001637
inclination: 97.5093°
perigee height: 577 km
apogee height: 580 km
right ascension of ascending node: 18.8274°
argument of perigee: 101.2398°
revolutions per day: 14.96213728
mean anomaly at epoch: 258.9008°

The dashed part of the orbit path shows where the satellite is in the earth's shadow,  

DLR